Regional Weather Roundup
Issued by NWS

Current Version | Previous Version | Text Only | Print | Product List | Glossary On
Versions: 1 2 3 4 5 6 7 8 9 10 11 12 13 14 15 16 17 18 19 20 21 22 23 24 25 26 27 28 29 30 31 32 33 34 35 36 37 38 39 40 41 42 43 44 45 46 47 48 49 50
671
ASUS46 KSTO 272115
RWRCA

NORTHERN AND CENTRAL CA REGIONAL WEATHER ROUNDUP
NATIONAL WEATHER SERVICE SACRAMENTO CA
200 PM PDT WED JUL 27 2016

NOTE: FAIR INDICATES FEW OR NO CLOUDS BELOW 12,000 FEET WITH NO
SIGNIFICANT WEATHER AND/OR OBSTRUCTIONS TO VISIBILITY.

CAZ001-003-272200-
NORTHWEST AREA

CITY           SKY/WX    TMP DP  RH WIND       PRES   REMARKS
CRESCENT CITY  MOSUNNY   59  52  77 S10       29.95F
UKIAH          SUNNY    104  47  14 SE8       29.84F HX 100
$$

CAZ006-505>513-272200-
BAY AREA

CITY           SKY/WX    TMP DP  RH WIND       PRES   REMARKS
SANTA ROSA     SUNNY     91  54  28 S8        29.86F
SAN RAFAEL     N/A       82  MM  MM MISG
NAPA           SUNNY     83  57  41 S12       29.87F
CONCORD        SUNNY     96  48  19 NW14      29.85F HX  92
OAKLAND CITY   N/A       73  MM  MM MISG
OAKLAND        MOSUNNY   75  56  51 NW16      29.90S
SAN FRAN CITY  N/A       64  MM  62 MISG
SAN FRAN ARPT  MOSUNNY   70  51  51 NW18      29.89F
LIVERMORE      SUNNY    101  39  12 NW15      29.86S HX  96
HAYWARD        SUNNY     82  56  40 W12       29.88F
REDWOOD CITY   N/A       81  MM  46 MISG
MOFFETT ARPT   SUNNY     84  57  39 N8        29.89S
SAN JOSE ARPT  CLOUDY    90  56  31 NW9       29.87F
$$
CAZ034-037-514>518-272200-
CENTRAL COAST

CITY           SKY/WX    TMP DP  RH WIND       PRES   REMARKS
WATSONVILLE    SUNNY     72  55  55 S10       29.94S
SALINAS        CLOUDY    69  54  58 W15       29.92F
MONTEREY       MOSUNNY   62  54  74 VRB7      29.95F
SAN LUIS OBISP SUNNY     82  54  37 NW7       29.93R
SANTA MARIA    SUNNY     76  55  48 NW12      29.95S
$$
CAZ015-016-272200-
NORTHERN SACRAMENTO VALLEY

CITY           SKY/WX    TMP DP  RH WIND       PRES   REMARKS
REDDING        SUNNY    104  42  12 S8        29.83F HX  99
RED BLUFF      SUNNY    105  45  13 SE7       29.83F HX 101
OROVILLE       SUNNY     99  60  27 CALM      29.86F HX  99
$$
CAZ016>018-272200-
SOUTHERN SACRAMENTO VALLEY

CITY           SKY/WX    TMP DP  RH WIND       PRES   REMARKS
BEALE AFB      SUNNY    101  46  15 W7        29.82F HX  97
LINCOLN        FAIR     100  37  11 W5        29.83F HX  95
MARYSVILLE     SUNNY    100  54  21 W8        29.83F HX  98
SAC INTL ARPT  MOSUNNY   99  54  22 NW6       29.83F HX  97
MATHER AIRPORT SUNNY    100  46  16 W6        29.83  HX  96
DOWNTOWN SAC   N/A      103  MM  MM MISG
SAC EXEC ARPT  SUNNY     99  53  21 W5        29.83F HX  96
VACAVILLE      SUNNY    102  48  16 VRB7      29.85F HX  98
TRAVIS AFB     SUNNY     97  48  18 SW12      29.82F HX  94
$$
CAZ019>021-272200-
SAN JOAQUIN VALLEY

CITY           SKY/WX    TMP DP  RH WIND       PRES   REMARKS
STOCKTON       SUNNY    101  48  16 NW9       29.84F HX  97
MODESTO        SUNNY    103  46  14 NW8       29.83F HX  99
MERCED         SUNNY    102  47  15 NW8       29.82F HX  98
LEMOORE        SUNNY    105  42  11 N8        29.83F HX 100
FRESNO         SUNNY    105  52  17 SE3       29.83F HX 103
HANFORD        MOSUNNY  105  45  13 VRB6      29.83F HX 101
PORTERVILLE    SUNNY    103  50  17 W10       29.85F HX 100
BAKERSFIELD    SUNNY    105  41  11 NW7       29.84F HX 100
$$
CAZ011-012-071-272200-
NORTHERN MOUNTAINS

CITY           SKY/WX    TMP DP  RH WIND       PRES   REMARKS
YREKA          SUNNY     96  42  15 CALM      30.00F HX  92
MOUNT SHASTA   SUNNY     97  44  16 CALM      30.05F HX  93
ALTURAS        SUNNY     93  35  13 NW5       30.11F
$$
CAZ011-012-071-272200-
SIERRA NEVADA MTNS

CITY           SKY/WX    TMP DP  RH WIND       PRES   REMARKS
TRUCKEE        SUNNY     91  30  11 W10G17    30.25S
TAHOE VLY ARPT SUNNY     86  30  13 N8        30.27F
MAMMOTH LAKES    N/A     89  32  13 W10G17    30.34S
$$




USA.gov is the U.S. government's official web portal to all federal, state and local government web resources and services.